TimePDT,TemperatureF,Dew PointF,Humidity,Sea Level PressureIn,VisibilityMPH,Wind Direction,Wind SpeedMPH,Gust SpeedMPH,PrecipitationIn,Events,Conditions,WindDirDegrees,DateUTC
12:53 AM,59.0,54.0,83,29.86,6.0,West,5.8,-,N/A,,Haze,260,2009-05-10 07:53:00
1:53 AM,57.2,53.6,88,29.89,5.0,WSW,4.6,-,N/A,,Clear,240,2009-05-10 08:53:00
2:53 AM,57.9,55.0,90,29.86,4.0,WSW,3.5,-,N/A,,Clear,240,2009-05-10 09:53:00
3:09 AM,57.2,55.4,94,29.89,4.0,WSW,3.5,-,N/A,,Scattered Clouds,240,2009-05-10 10:09:00
3:19 AM,57.2,55.4,94,29.89,4.0,West,4.6,-,N/A,,Mostly Cloudy,260,2009-05-10 10:19:00
3:53 AM,57.9,55.0,90,29.86,4.0,West,4.6,-,N/A,,Overcast,260,2009-05-10 10:53:00
4:53 AM,57.2,55.4,94,29.89,4.0,Calm,Calm,-,N/A,,Overcast,0,2009-05-10 11:53:00
5:53 AM,57.9,55.0,90,29.87,3.0,Calm,Calm,-,N/A,,Overcast,0,2009-05-10 12:53:00
6:33 AM,59.0,55.4,88,29.90,2.5,NE,3.5,-,N/A,,Overcast,50,2009-05-10 13:33:00
6:53 AM,59.0,55.0,87,29.88,2.0,Calm,Calm,-,N/A,,Overcast,0,2009-05-10 13:53:00
7:53 AM,60.1,55.0,83,29.89,2.0,Calm,Calm,-,N/A,,Haze,0,2009-05-10 14:53:00
8:24 AM,62.6,55.4,77,29.91,2.5,Calm,Calm,-,N/A,,Haze,0,2009-05-10 15:24:00
8:53 AM,62.1,55.9,80,29.90,2.5,SSW,3.5,-,N/A,,Haze,200,2009-05-10 15:53:00
9:48 AM,64.4,55.4,73,29.93,3.0,SW,6.9,-,N/A,,Haze,220,2009-05-10 16:48:00
9:53 AM,64.9,55.9,73,29.90,3.0,SW,6.9,-,N/A,,Haze,220,2009-05-10 16:53:00
10:53 AM,70.0,55.9,61,29.90,4.0,West,6.9,-,N/A,,Haze,260,2009-05-10 17:53:00
11:53 AM,73.0,55.9,55,29.89,5.0,Variable,5.8,-,N/A,,Haze,0,2009-05-10 18:53:00
12:53 PM,78.1,55.0,45,29.86,8.0,West,8.1,-,N/A,,Clear,270,2009-05-10 19:53:00
1:53 PM,80.1,52.0,38,29.84,9.0,Variable,5.8,-,N/A,,Clear,0,2009-05-10 20:53:00
2:53 PM,82.0,51.1,34,29.83,10.0,WSW,12.7,-,N/A,,Clear,250,2009-05-10 21:53:00
3:53 PM,81.0,52.0,36,29.82,10.0,West,11.5,19.6,N/A,,Clear,270,2009-05-10 22:53:00
4:53 PM,80.1,53.1,39,29.81,10.0,WSW,11.5,-,N/A,,Clear,250,2009-05-10 23:53:00
5:53 PM,78.1,52.0,40,29.81,10.0,West,11.5,-,N/A,,Clear,260,2009-05-11 00:53:00
6:53 PM,75.0,53.1,46,29.82,10.0,WSW,11.5,-,N/A,,Clear,250,2009-05-11 01:53:00
7:53 PM,72.0,54.0,53,29.83,10.0,West,8.1,-,N/A,,Clear,260,2009-05-11 02:53:00
8:53 PM,69.1,54.0,58,29.85,10.0,West,5.8,-,N/A,,Clear,260,2009-05-11 03:53:00
9:53 PM,66.9,54.0,63,29.86,10.0,SSW,4.6,-,N/A,,Clear,210,2009-05-11 04:53:00
10:53 PM,64.9,54.0,68,29.86,9.0,South,5.8,-,N/A,,Clear,190,2009-05-11 05:53:00
11:53 PM,63.0,54.0,72,29.86,10.0,SSW,4.6,-,N/A,,Clear,210,2009-05-11 06:53:00